Location: Deneb Observatory
(47.2267°N, 100.4953°W)
Time: 05:51:00
(UTC-05:00)

Amateur Radio Satellites - All Passes

Search period start: 25 July 2017 05:21
Search period end: 26 July 2017 05:21
Location: Deneb Observatory, 47.2267°N, 100.4953°W

Satellite Date Start Highest point End Downlink Frequencies (MHz)
Time Altitude Azimuth
Oscar 19 25 Jul 05:24:24 05:26:32 13° 307° (NW) 05:28:40 437.125/150
ITAMSAT 1 25 Jul 05:34:12 05:39:27 87° 287° (WNW) 05:44:39 435.822/435.867
MOZHAYETS 4 25 Jul 05:43:48 05:45:44 12° 272° (W) 05:47:40
Gurwin Techsat 1B 25 Jul 05:50:11 05:52:17 12° 308° (NW) 05:54:24 435.225
YUBILEINY 25 Jul 05:57:05 06:05:11 39° 68° (ENE) 06:13:11 435.215
DOVE 4 25 Jul 06:11:44 06:15:40 21° 89° (E) 06:19:30 437.250
CUBESAT XI-V 25 Jul 06:15:56 06:19:45 26° 266° (W) 06:23:38 437.345
AO-7 25 Jul 06:19:40 06:27:56 65° 296° (WNW) 06:36:07 .
KKS-1 25 Jul 06:22:06 06:26:12 35° 263° (W) 06:30:20 437.445
STARS 25 Jul 06:51:45 06:55:54 39° 262° (W) 07:00:05 437.465
XW-2D 25 Jul 06:56:39 06:59:07 16° 92° (E) 07:01:34 145.860 - 145.880
PCSat 25 Jul 06:59:24 07:04:49 68° 307° (NW) 07:10:15 145.827
XW-2B 25 Jul 07:06:24 07:09:15 20° 93° (E) 07:12:07 145.730 - 145.750
ITAMSAT 1 25 Jul 07:15:16 07:18:10 15° 305° (NW) 07:21:03 435.822/435.867
SO-50 25 Jul 07:16:17 07:20:28 38° 119° (ESE) 07:24:39 436.795
CUTE-I 25 Jul 07:21:54 07:26:35 30° 95° (E) 07:31:14 437.470
XW-2C 25 Jul 07:23:21 07:26:45 31° 97° (E) 07:30:08 145.795 - 145.815
STRAND 1 25 Jul 07:26:25 07:31:07 38° 66° (ENE) 07:35:51 437.568
HO-68 25 Jul 07:29:26 07:33:08 15° 85° (E) 07:36:48 435.675
NUDT-PHONESAT 25 Jul 07:31:05 07:34:18 28° 96° (E) 07:37:31 437.300
KAITUO 1B 25 Jul 07:45:17 07:48:51 43° 99° (E) 07:52:25 145.475/437.950
CUTE 1.7 + AOD 2 25 Jul 07:46:18 07:47:42 11° 87° (E) 07:49:05 437.475
LilacSat-2 25 Jul 07:46:33 07:50:18 63° 101° (E) 07:54:04 437.200
DOVE 4 25 Jul 07:48:31 07:53:45 60° 288° (WNW) 07:58:48 437.250
YUBILEINY 25 Jul 07:53:52 08:02:19 55° 270° (W) 08:10:42 435.215
XW-2F 25 Jul 08:00:57 08:04:43 83° 106° (ESE) 08:08:28 145.980 - 146.000
FO-29 25 Jul 08:12:21 08:17:07 18° 48° (NE) 08:21:53 435.910
AO-7 25 Jul 08:13:45 08:19:11 19° 318° (NW) 08:24:36 .
XW-2D 25 Jul 08:29:56 08:33:30 41° 289° (WNW) 08:37:03 145.860 - 145.880
XW-2B 25 Jul 08:40:07 08:43:32 33° 290° (WNW) 08:46:57 145.730 - 145.750
AAUSAT CUBESAT 2 25 Jul 08:41:11 08:43:13 13° 89° (E) 08:45:13 437.432
PCSat 25 Jul 08:45:32 08:49:14 18° 329° (NNW) 08:52:57 145.827
XW-2A 25 Jul 08:47:43 08:50:35 26° 96° (E) 08:53:26 145.665 - 145.685
SO-50 25 Jul 08:56:49 09:00:58 35° 318° (NW) 09:05:07 436.795
XW-2C 25 Jul 08:57:51 09:00:48 22° 294° (WNW) 09:03:45 145.795 - 145.815
CUBEBUG 2 25 Jul 09:00:49 09:04:45 34° 96° (E) 09:08:35 437.445
CUTE-I 25 Jul 09:01:43 09:06:46 43° 293° (WNW) 09:11:47 437.470
NUDT-PHONESAT 25 Jul 09:05:08 09:08:05 23° 293° (WNW) 09:11:01 437.300
STRAND 1 25 Jul 09:05:45 09:10:21 32° 264° (W) 09:14:57 437.568
HO-68 25 Jul 09:14:53 09:22:05 75° 106° (ESE) 09:29:13 435.675
AO-73 25 Jul 09:16:54 09:19:27 16° 90° (E) 09:21:58 145.935
CUTE 1.7 + AOD 2 25 Jul 09:19:49 09:24:04 77° 286° (WNW) 09:28:19 437.475
KAITUO 1B 25 Jul 09:20:08 09:22:33 17° 296° (WNW) 09:24:58 145.475/437.950
LilacSat-2 25 Jul 09:22:23 09:24:07 13° 299° (WNW) 09:25:50 437.200
DOVE 4 25 Jul 09:29:02 09:30:19 11° 308° (NW) 09:31:36 437.250
SEEDS 25 Jul 09:31:46 09:36:00 89° 278° (W) 09:40:14 437.485
TIGRISAT 25 Jul 09:32:43 09:35:51 18° 62° (ENE) 09:38:58 435.000
M-CUBED/EXP-1 PRIME 25 Jul 09:40:55 09:42:56 14° 52° (NE) 09:45:02 437.505
FO-29 25 Jul 09:53:07 10:00:42 64° 69° (ENE) 10:08:27 435.910
YUBILEINY 25 Jul 09:55:19 09:56:56 11° 293° (WNW) 09:58:34 435.215
UWE-3 25 Jul 09:58:23 10:02:37 84° 100° (E) 10:06:46 435.000/436.395/437.385
ZACube-1 25 Jul 10:11:45 10:15:54 66° 101° (E) 10:20:01 437.345
AAUSAT CUBESAT 2 25 Jul 10:14:57 10:19:05 65° 287° (WNW) 10:23:14 437.432
PRISM 25 Jul 10:17:42 10:21:32 40° 69° (ENE) 10:25:25 437.425
XW-2A 25 Jul 10:20:40 10:23:12 20° 293° (WNW) 10:25:44 145.665 - 145.685
UNISAT 6 25 Jul 10:23:22 10:27:54 55° 72° (ENE) 10:32:22 437.425
Oscar 11 25 Jul 10:37:29 10:41:49 84° 103° (ESE) 10:46:08 .
CUBEBUG 2 25 Jul 10:37:43 10:41:14 25° 295° (WNW) 10:44:40 437.445
SO-50 25 Jul 10:41:10 10:42:45 12° 341° (NNW) 10:44:20 436.795
AO-73 25 Jul 10:51:59 10:56:01 52° 288° (WNW) 11:00:01 145.935
QB50P2 25 Jul 11:01:01 11:02:06 11° 57° (ENE) 11:03:11 145.880/145.840
HO-68 25 Jul 11:03:25 11:09:11 27° 305° (NW) 11:14:56 435.675
TIGRISAT 25 Jul 11:07:32 11:12:08 61° 259° (W) 11:16:39 435.000
SEEDS 25 Jul 11:09:46 11:11:01 11° 302° (WNW) 11:12:15 437.485
EO-79 25 Jul 11:12:02 11:13:58 13° 59° (ENE) 11:15:53 145.935-145.965
NANOSAT C BR1 25 Jul 11:12:21 11:13:52 12° 58° (ENE) 11:15:24 145.865
M-CUBED/EXP-1 PRIME 25 Jul 11:13:05 11:16:45 70° 252° (WSW) 11:20:47 437.505
DELFI C3 25 Jul 11:15:26 11:19:24 57° 101° (E) 11:23:20 145.870
AIST 2D 25 Jul 11:30:11 11:33:15 30° 70° (ENE) 11:36:20 435.315
UWE-3 25 Jul 11:36:54 11:38:26 12° 302° (WNW) 11:39:57 435.000/436.395/437.385
EO-88 25 Jul 11:39:10 11:42:49 69° 101° (E) 11:46:27 145.990 - 145.960
FO-29 25 Jul 11:39:18 11:46:06 33° 269° (W) 11:53:03 435.910
LO-87 25 Jul 11:44:44 11:45:41 11° 89° (E) 11:46:39 145.935 - 145.965
ZACube-1 25 Jul 11:49:27 11:51:41 14° 300° (WNW) 11:53:55 437.345
NO-84 25 Jul 11:53:05 11:55:34 23° 133° (SE) 11:58:13 435.350 FM
PRISM 25 Jul 11:53:53 11:56:59 20° 267° (W) 12:00:06 437.425
UNISAT 6 25 Jul 12:01:43 12:04:54 18° 269° (W) 12:08:05 437.425
Oscar 11 25 Jul 12:15:30 12:17:20 13° 301° (WNW) 12:19:09 .
DUCHIFAT 1 25 Jul 12:17:11 12:21:11 42° 70° (ENE) 12:25:12 145.980
PCSat 25 Jul 12:18:46 12:21:07 13° 22° (NNE) 12:23:30 145.827
POLYITAN 1 25 Jul 12:19:56 12:24:07 56° 72° (ENE) 12:28:18 437.675
QB50P2 25 Jul 12:32:54 12:37:11 84° 75° (ENE) 12:41:28 145.880/145.840
NANOSAT C BR1 25 Jul 12:44:40 12:48:56 89° 267° (W) 12:53:12 145.865
EO-79 25 Jul 12:44:50 12:49:07 81° 258° (WSW) 12:53:25 145.935-145.965
BUGSAT 1 25 Jul 12:45:12 12:48:47 27° 66° (ENE) 12:52:21 437.445
AO-85 25 Jul 12:50:46 12:52:58 15° 112° (ESE) 12:55:10 145.980
DELFI C3 25 Jul 12:51:23 12:53:44 15° 298° (WNW) 12:56:04 145.870
AIST 2D 25 Jul 13:03:58 13:06:31 19° 267° (W) 13:09:05 435.315
EO-88 25 Jul 13:14:52 13:15:58 11° 299° (WNW) 13:17:04 145.990 - 145.960
LO-87 25 Jul 13:15:56 13:19:31 59° 286° (WNW) 13:23:02 145.935 - 145.965
SPROUT 25 Jul 13:19:08 13:22:25 21° 93° (E) 13:25:41 437.525
ESTCUBE 1 25 Jul 13:22:04 13:26:37 82° 104° (ESE) 13:31:08 437.505/2401.250
Oscar 19 25 Jul 13:24:23 13:28:56 33° 65° (ENE) 13:33:31 437.125/150
BEESAT 3 25 Jul 13:25:41 13:29:16 32° 117° (ESE) 13:32:52 437.485
NO-84 25 Jul 13:29:41 13:32:47 51° 334° (NNW) 13:36:09 435.350 FM
AO-7 25 Jul 13:41:08 13:46:16 18° 40° (NE) 13:51:24 .
Gurwin Techsat 1B 25 Jul 13:52:51 13:57:46 40° 66° (ENE) 14:02:42 435.225
DUCHIFAT 1 25 Jul 13:53:52 13:57:02 20° 267° (W) 14:00:13 145.980
POLYITAN 1 25 Jul 13:57:38 14:00:15 16° 270° (W) 14:02:51 437.675
PCSat 25 Jul 14:01:05 14:06:09 38° 46° (NE) 14:11:11 145.827
SO-50 25 Jul 14:04:25 14:07:39 19° 31° (NNE) 14:10:55 436.795
VELOX 1 25 Jul 14:06:12 14:10:37 54° 101° (E) 14:14:58 145.980
BEESAT 2 25 Jul 14:06:24 14:09:53 30° 117° (ESE) 14:13:27 435.950
DX 1 25 Jul 14:11:11 14:14:28 20° 93° (E) 14:17:43 434.975-435.025
QB50P2 25 Jul 14:12:39 14:13:33 11° 273° (W) 14:14:26 145.880/145.840
50 SAT 25 Jul 14:15:37 14:18:36 27° 96° (E) 14:21:34 437.505
BUGSAT 1 25 Jul 14:20:13 14:24:02 32° 263° (W) 14:27:52 437.445
AO-85 25 Jul 14:28:57 14:32:53 63° 310° (NW) 14:36:47 145.980
UKube-1 25 Jul 14:52:29 14:56:29 35° 97° (E) 15:00:26 .
SPROUT 25 Jul 14:54:28 14:58:30 41° 290° (WNW) 15:02:28 437.525
ESTCUBE 1 25 Jul 15:00:29 15:02:48 14° 302° (WNW) 15:05:07 437.505/2401.250
BEESAT 3 25 Jul 15:03:09 15:06:49 33° 317° (NW) 15:10:31 437.485
Oscar 19 25 Jul 15:03:30 15:08:12 36° 263° (W) 15:12:56 437.125/150
NO-84 25 Jul 15:08:03 15:10:51 23° 355° (N) 15:13:50 435.350 FM
ITAMSAT 1 25 Jul 15:16:48 15:21:19 31° 63° (ENE) 15:25:51 435.822/435.867
RS-15 25 Jul 15:20:39 15:29:44 26° 100° (E) 15:38:53 29.354- 29.394
AO-7 25 Jul 15:29:15 15:37:24 60° 63° (ENE) 15:45:36 .
Gurwin Techsat 1B 25 Jul 15:33:03 15:37:47 32° 265° (W) 15:42:33 435.225
VELOX 1 25 Jul 15:43:30 15:46:41 19° 299° (WNW) 15:49:50 145.980
BEESAT 2 25 Jul 15:43:51 15:47:34 35° 316° (NW) 15:51:21 435.950
SO-50 25 Jul 15:44:14 15:48:48 83° 52° (NE) 15:53:22 436.795
PCSat 25 Jul 15:44:31 15:49:37 42° 246° (WSW) 15:54:41 145.827
DX 1 25 Jul 15:46:39 15:50:52 46° 290° (WNW) 15:55:03 434.975-435.025
O/OREOS (USA 219) 25 Jul 15:46:48 15:50:38 28° 105° (ESE) 15:54:28 437.305
50 SAT 25 Jul 15:48:33 15:51:13 21° 294° (WNW) 15:53:52 437.505
MOZHAYETS 4 25 Jul 15:56:32 15:59:07 15° 89° (E) 16:01:41
AO-85 25 Jul 16:12:08 16:14:04 13° 332° (NNW) 16:16:00 145.980
UKube-1 25 Jul 16:28:44 16:32:23 27° 295° (WNW) 16:36:00 .
BEESAT 25 Jul 16:35:46 16:40:20 44° 99° (E) 16:44:53 436.000
NO-84 25 Jul 16:45:54 16:49:06 30° 16° (NNE) 16:52:33 435.350 FM
ITUPSAT 1 25 Jul 16:49:15 16:53:58 58° 101° (ESE) 16:58:39 437.325
ITAMSAT 1 25 Jul 16:55:41 17:00:38 42° 262° (W) 17:05:37 435.822/435.867
CUTE-I 25 Jul 17:10:52 17:12:48 12° 52° (NE) 17:14:44 437.470
DOVE 4 25 Jul 17:19:37 17:23:49 28° 64° (ENE) 17:28:12 437.250
AO-7 25 Jul 17:23:00 17:30:33 37° 263° (W) 17:38:10 .
O/OREOS (USA 219) 25 Jul 17:25:48 17:29:55 35° 304° (WNW) 17:34:04 437.305
BEESAT 2 25 Jul 17:26:12 17:26:30 10° 338° (NNW) 17:26:48 435.950
SO-50 25 Jul 17:26:16 17:28:38 14° 250° (WSW) 17:31:00 436.795
RS-15 25 Jul 17:28:10 17:40:25 83° 124° (ESE) 17:52:49 29.354- 29.394
MOZHAYETS 4 25 Jul 17:32:12 17:36:44 67° 287° (WNW) 17:41:16
XW-2D 25 Jul 17:41:35 17:43:32 14° 62° (ENE) 17:45:29 145.860 - 145.880
XW-2B 25 Jul 17:51:07 17:53:32 17° 64° (ENE) 17:55:57 145.730 - 145.750
HO-68 25 Jul 18:02:06 18:06:45 19° 49° (NE) 18:11:23 435.675
XW-2C 25 Jul 18:07:42 18:10:47 25° 67° (ENE) 18:13:52 145.795 - 145.815
CUBESAT XI-V 25 Jul 18:08:01 18:12:40 61° 101° (E) 18:17:18 437.345
KKS-1 25 Jul 18:09:29 18:13:36 34° 97° (E) 18:17:38 437.445
NUDT-PHONESAT 25 Jul 18:13:29 18:16:19 21° 66° (ENE) 18:19:09 437.300
BEESAT 25 Jul 18:14:01 18:17:52 25° 297° (WNW) 18:21:43 436.000
NO-84 25 Jul 18:23:09 18:26:54 86° 218° (SW) 18:30:59 435.350 FM
ITUPSAT 1 25 Jul 18:27:58 18:31:23 20° 300° (WNW) 18:34:48 437.325
KAITUO 1B 25 Jul 18:28:11 18:31:27 31° 69° (ENE) 18:34:45 145.475/437.950
LilacSat-2 25 Jul 18:31:06 18:34:43 46° 72° (ENE) 18:38:21 437.200
STARS 25 Jul 18:37:48 18:41:39 29° 95° (E) 18:45:28 437.465
CUTE 1.7 + AOD 2 25 Jul 18:41:59 18:43:57 13° 60° (ENE) 18:45:56 437.475
XW-2F 25 Jul 18:44:23 18:48:04 60° 74° (ENE) 18:51:45 145.980 - 146.000
CUTE-I 25 Jul 18:46:32 18:51:51 65° 71° (ENE) 18:57:12 437.470
SEEDS 25 Jul 18:53:50 18:55:06 11° 58° (ENE) 18:56:22 437.485
DOVE 4 25 Jul 18:56:33 19:01:16 44° 263° (W) 19:06:14 437.250
YUBILEINY 25 Jul 19:02:15 19:10:10 39° 85° (E) 19:18:06 435.215
XW-2D 25 Jul 19:13:36 19:17:17 56° 260° (W) 19:20:59 145.860 - 145.880
XW-2A 25 Jul 19:22:30 19:24:39 16° 65° (ENE) 19:26:49 145.665 - 145.685
XW-2B 25 Jul 19:23:48 19:27:24 44° 261° (W) 19:31:01 145.730 - 145.750
UWE-3 25 Jul 19:24:12 19:26:20 13° 59° (ENE) 19:28:25 435.000/436.395/437.385
AAUSAT CUBESAT 2 25 Jul 19:34:32 19:36:41 14° 60° (ENE) 19:38:50 437.432
AO-85 25 Jul 19:38:13 19:38:50 10° 23° (NNE) 19:39:27 145.980
XW-2C 25 Jul 19:41:39 19:44:54 27° 265° (W) 19:48:09 145.795 - 145.815
RS-15 25 Jul 19:42:37 19:54:19 45° 331° (NNW) 20:05:58 29.354- 29.394
KKS-1 25 Jul 19:46:12 19:50:02 29° 295° (WNW) 19:53:52 437.445
HO-68 25 Jul 19:46:12 19:53:21 75° 69° (ENE) 20:00:32 435.675
CUBESAT XI-V 25 Jul 19:46:24 19:49:36 19° 299° (WNW) 19:52:47 437.345
NUDT-PHONESAT 25 Jul 19:46:45 19:50:03 31° 264° (W) 19:53:22 437.300
CUBEBUG 2 25 Jul 20:01:06 20:05:33 44° 70° (ENE) 20:09:54 437.445
NO-84 25 Jul 20:01:31 20:04:01 16° 231° (SW) 20:06:37 435.350 FM
Oscar 11 25 Jul 20:02:03 20:03:40 12° 58° (ENE) 20:05:17 .
KAITUO 1B 25 Jul 20:02:41 20:05:31 21° 267° (W) 20:08:22 145.475/437.950
BEESAT 3 25 Jul 20:02:50 20:04:40 13° 27° (NNE) 20:06:29 437.485
LilacSat-2 25 Jul 20:07:05 20:09:16 15° 269° (W) 20:11:27 437.200
STARS 25 Jul 20:14:03 20:18:00 32° 294° (WNW) 20:21:55 437.465
CUTE 1.7 + AOD 2 25 Jul 20:15:01 20:19:13 75° 258° (WSW) 20:23:26 437.475
AO-73 25 Jul 20:15:02 20:18:14 20° 64° (ENE) 20:21:23 145.935
XW-2F 25 Jul 20:21:16 20:22:35 11° 271° (W) 20:23:53 145.980 - 146.000
SEEDS 25 Jul 20:25:58 20:30:07 89° 256° (WSW) 20:34:19 437.485
CUTE-I 25 Jul 20:28:30 20:32:21 20° 269° (W) 20:36:14 437.470
BEESAT 2 25 Jul 20:44:09 20:45:57 12° 27° (NNE) 20:47:45 435.950
XW-2A 25 Jul 20:54:00 20:57:08 35° 262° (W) 21:00:17 145.665 - 145.685
UWE-3 25 Jul 20:57:36 21:02:11 85° 258° (WSW) 21:06:39 435.000/436.395/437.385
YUBILEINY 25 Jul 20:58:06 21:06:43 54° 287° (WNW) 21:15:21 435.215
Tancredo 1 25 Jul 20:59:56 21:02:26 26° 142° (SE) 21:04:57 437.200
AAUSAT CUBESAT 2 25 Jul 21:07:32 21:11:37 67° 259° (W) 21:15:44 437.432
ZACube-1 25 Jul 21:09:54 21:14:18 75° 76° (ENE) 21:18:39 437.345
STRAND 1 25 Jul 21:12:13 21:17:20 68° 102° (ESE) 21:22:25 437.568
AO-85 25 Jul 21:16:28 21:20:20 37° 45° (NE) 21:24:25 145.980
nSIGHT-1 25 Jul 21:28:40 21:31:13 21° 139° (SE) 21:33:44 .
Oscar 11 25 Jul 21:34:50 21:39:09 88° 257° (WSW) 21:43:29 .
HO-68 25 Jul 21:36:08 21:41:45 24° 269° (W) 21:47:24 435.675
CUBEBUG 2 25 Jul 21:38:38 21:42:20 23° 267° (W) 21:45:59 437.445
BEESAT 3 25 Jul 21:39:10 21:43:08 54° 49° (NE) 21:47:02 437.485
AO-73 25 Jul 21:49:54 21:54:10 48° 261° (W) 21:58:22 145.935
RS-15 25 Jul 21:59:50 22:10:46 34° 5° (N) 22:21:26 29.354- 29.394
DELFI C3 25 Jul 22:03:24 22:07:12 48° 72° (ENE) 22:11:02 145.870
EO-88 25 Jul 22:19:34 22:23:02 45° 72° (ENE) 22:26:32 145.990 - 145.960
BEESAT 2 25 Jul 22:20:38 22:24:38 51° 48° (NE) 22:28:35 435.950
ISS 25 Jul 22:22:40 22:25:51 56° 149° (SSE) 22:29:03 437.550
Tancredo 1 25 Jul 22:34:46 22:37:40 58° 340° (NNW) 22:40:36 437.200
FO-29 25 Jul 22:45:30 22:52:17 42° 94° (E) 22:58:18 435.910
ZACube-1 25 Jul 22:49:12 22:51:05 12° 272° (W) 22:52:57 437.345
ESTCUBE 1 25 Jul 22:50:08 22:52:33 14° 58° (ENE) 22:54:58 437.505/2401.250
STRAND 1 25 Jul 22:52:25 22:56:00 20° 301° (WNW) 22:59:35 437.568
TIGRISAT 25 Jul 22:56:33 22:59:53 22° 92° (E) 23:03:11 435.000
AO-85 25 Jul 22:56:57 23:00:39 30° 242° (WSW) 23:04:34 145.980
YUBILEINY 25 Jul 23:02:02 23:06:01 13° 312° (NW) 23:10:01 435.215
nSIGHT-1 25 Jul 23:04:07 23:07:20 75° 337° (NNW) 23:10:35 .
BEESAT 3 25 Jul 23:17:34 23:20:20 18° 247° (WSW) 23:23:04 437.485
PRISM 25 Jul 23:30:41 23:34:40 41° 99° (E) 23:38:38 437.425
DELFI C3 25 Jul 23:39:49 23:42:15 16° 269° (W) 23:44:42 145.870
UNISAT 6 25 Jul 23:48:25 23:52:48 79° 104° (ESE) 23:57:04 437.425
LO-87 25 Jul 23:54:18 23:57:57 85° 73° (ENE) 00:01:37 145.935 - 145.965
EO-88 25 Jul 23:54:56 23:56:57 14° 269° (W) 23:58:59 145.990 - 145.960
BEESAT 2 25 Jul 23:59:06 00:02:03 20° 247° (WSW) 00:05:00 435.950
ISS 25 Jul 23:59:17 00:02:24 43° 348° (NNW) 00:05:33 437.550
Tancredo 1 26 Jul 00:10:42 00:13:25 32° 0° (N) 00:16:07 437.200
RS-15 26 Jul 00:14:41 00:26:42 55° 37° (NE) 00:38:08 29.354- 29.394
O/OREOS (USA 219) 26 Jul 00:14:42 00:17:22 15° 46° (NE) 00:20:01 437.305
SPROUT 26 Jul 00:15:12 00:18:44 25° 65° (ENE) 00:22:15 437.525
QB50P2 26 Jul 00:17:04 00:18:07 11° 87° (E) 00:19:09 145.880/145.840
M-CUBED/EXP-1 PRIME 26 Jul 00:22:03 00:26:34 53° 106° (ESE) 00:31:08 437.505
ESTCUBE 1 26 Jul 00:24:17 00:28:45 77° 257° (WSW) 00:33:16 437.505/2401.250
AIST 2D 26 Jul 00:25:04 00:27:56 24° 95° (E) 00:30:49 435.315
NANOSAT C BR1 26 Jul 00:27:50 00:29:20 12° 88° (E) 00:30:49 145.865
EO-79 26 Jul 00:27:56 00:29:57 13° 89° (E) 00:31:57 145.935-145.965
FO-29 26 Jul 00:30:33 00:37:19 43° 297° (WNW) 00:43:22 435.910
TIGRISAT 26 Jul 00:32:42 00:36:46 40° 291° (WNW) 00:40:45 435.000
nSIGHT-1 26 Jul 00:41:01 00:44:02 36° 357° (N) 00:47:04 .
50 SAT 26 Jul 00:50:25 00:52:44 17° 65° (ENE) 00:55:05 437.505
VELOX 1 26 Jul 01:06:01 01:10:25 70° 73° (ENE) 01:14:52 145.980
PRISM 26 Jul 01:06:31 01:09:42 21° 297° (WNW) 01:12:52 437.425
DX 1 26 Jul 01:09:24 01:13:03 27° 65° (ENE) 01:16:43 434.975-435.025
UNISAT 6 26 Jul 01:26:51 01:28:53 13° 302° (WNW) 01:30:54 437.425
DUCHIFAT 1 26 Jul 01:33:16 01:37:21 49° 100° (E) 01:41:24 145.980
ISS 26 Jul 01:36:13 01:39:18 39° 8° (N) 01:42:24 437.550
POLYITAN 1 26 Jul 01:37:07 01:41:19 68° 101° (ESE) 01:45:30 437.675
Tancredo 1 26 Jul 01:46:13 01:49:08 59° 20° (NNE) 01:52:04 437.200
UKube-1 26 Jul 01:49:33 01:53:39 44° 69° (ENE) 01:57:46 .
QB50P2 26 Jul 01:50:14 01:54:28 80° 287° (WNW) 01:58:40 145.880/145.840
SPROUT 26 Jul 01:50:29 01:54:28 36° 263° (W) 01:58:28 437.525
O/OREOS (USA 219) 26 Jul 01:52:54 01:57:25 86° 246° (WSW) 02:01:55 437.305
M-CUBED/EXP-1 PRIME 26 Jul 01:57:05 02:00:39 23° 302° (WNW) 02:04:17 437.505
AIST 2D 26 Jul 01:58:13 02:01:06 24° 292° (WNW) 02:03:58 435.315
BUGSAT 1 26 Jul 01:58:39 02:02:12 27° 95° (E) 02:05:41 437.445
NANOSAT C BR1 26 Jul 02:01:21 02:05:34 74° 286° (WNW) 02:09:44 145.865
EO-79 26 Jul 02:01:59 02:06:10 66° 287° (WNW) 02:10:20 145.935-145.965
Gurwin Techsat 1B 26 Jul 02:08:00 02:09:41 11° 85° (E) 02:11:22 435.225
BEESAT 26 Jul 02:11:07 02:12:41 12° 54° (NE) 02:14:14 436.000
nSIGHT-1 26 Jul 02:17:39 02:20:50 53° 17° (NNE) 02:24:00 .
FO-29 26 Jul 02:18:45 02:20:22 11° 320° (NW) 02:21:57 435.910
50 SAT 26 Jul 02:22:07 02:25:14 33° 262° (W) 02:28:24 437.505
ITUPSAT 1 26 Jul 02:23:47 02:26:24 15° 57° (ENE) 02:29:00 437.325
RS-15 26 Jul 02:27:46 02:39:34 61° 244° (WSW) 02:50:45 29.354- 29.394
VELOX 1 26 Jul 02:45:06 02:47:21 14° 271° (W) 02:49:37 145.980
DX 1 26 Jul 02:45:06 02:49:06 35° 262° (W) 02:53:09 434.975-435.025
MOZHAYETS 4 26 Jul 03:01:04 03:04:31 22° 63° (ENE) 03:07:58
DUCHIFAT 1 26 Jul 03:09:47 03:12:41 18° 298° (WNW) 03:15:33 145.980
Oscar 19 26 Jul 03:11:07 03:16:16 62° 102° (ESE) 03:21:23 437.125/150
ISS 26 Jul 03:12:43 03:15:58 76° 208° (SSW) 03:19:14 437.550
POLYITAN 1 26 Jul 03:14:19 03:16:35 14° 300° (WNW) 03:18:52 437.675
Tancredo 1 26 Jul 03:21:52 03:24:22 25° 218° (SW) 03:26:53 437.200
UKube-1 26 Jul 03:26:38 03:29:52 20° 267° (W) 03:33:08 .
QB50P2 26 Jul 03:29:02 03:29:31 10° 304° (WNW) 03:29:59 145.880/145.840
AO-7 26 Jul 03:29:49 03:33:37 14° 84° (E) 03:37:24 .
BUGSAT 1 26 Jul 03:33:57 03:37:32 29° 293° (WNW) 03:41:03 437.445
CUBESAT XI-V 26 Jul 03:40:16 03:42:01 12° 57° (ENE) 03:43:47 437.345
BEESAT 26 Jul 03:44:51 03:49:37 74° 73° (ENE) 03:54:24 436.000
Gurwin Techsat 1B 26 Jul 03:45:08 03:50:30 79° 104° (ESE) 03:55:49 435.225
nSIGHT-1 26 Jul 03:54:10 03:57:10 35° 216° (SW) 04:00:08 .
ITUPSAT 1 26 Jul 03:58:46 04:03:35 85° 257° (WSW) 04:08:23 437.325
MOZHAYETS 4 26 Jul 04:36:56 04:41:22 49° 261° (W) 04:45:49
RS-15 26 Jul 04:43:41 04:49:09 15° 268° (W) 04:54:32 29.354- 29.394
PCSat 26 Jul 04:48:09 04:51:15 16° 104° (ESE) 04:54:22 145.827
ISS 26 Jul 04:50:15 04:51:59 14° 225° (SW) 04:53:42 437.550
Oscar 19 26 Jul 04:51:18 04:55:09 22° 300° (WNW) 04:59:00 437.125/150
ITAMSAT 1 26 Jul 05:04:56 05:10:03 53° 101° (E) 05:15:06 435.822/435.867
KKS-1 26 Jul 05:10:07 05:14:24 46° 70° (ENE) 05:18:43 437.445
